Terminal Aerodrome Forecast
Issued by NWS Dodge City, KS

Home | Current Version | Previous Version | Graphics & Text | Print | Product List | Glossary Off
Versions: 1 2 3 4 5 6 7 8 9 10 11 12 13 14 15 16 17 18 19 20 21 22 23 24 25 26 27 28 29 30 31 32 33 34 35 36 37 38 39 40 41 42 43 44 45

000
FTUS43 KDDC 201735
TAFDDC
TAF
KDDC 201735Z 2018/2118 01016G22KT P6SM SKC
     FM202100 03010KT P6SM SKC
     FM210000 09006KT P6SM SKC
     FM210900 17007KT P6SM SKC
     FM211500 18020G30KT P6SM SKC=

USA.gov is the U.S. government's official web portal to all federal, state and local government web resources and services.